| time (UTC) | temp F | wind direction | speed MPH | gust MPH | rain 1hr in | rain 24hr in | rain mn in | humidity % | barometer mb |
| 20260503053330 | 30 | 324 | 2.0 | 7.0 | 0.00 | 0.08 | 0.00 | 82 | 1005.6 |
| 20260503052839 | 29 | 298 | 3.0 | 11.0 | 0.00 | 0.08 | 0.00 | 82 | 1005.6 |
| 20260503052333 | 29 | 303 | 5.0 | 13.0 | 0.00 | 0.08 | 0.00 | 81 | 1005.5 |
| 20260503051822 | 29 | 319 | 5.0 | 13.0 | 0.00 | 0.08 | 0.00 | 81 | 1005.5 |
| 20260503051337 | 29 | 291 | 4.0 | 8.0 | 0.00 | 0.08 | 0.00 | 81 | 1005.5 |
| 20260503050848 | 28 | 272 | 3.0 | 6.0 | 0.00 | 0.08 | 0.00 | 80 | 1005.5 |
| 20260503050321 | 28 | 297 | 1.0 | 6.0 | 0.00 | 0.08 | 0.00 | 81 | 1005.4 |
| 20260503045833 | 28 | 296 | 3.0 | 6.0 | 0.00 | 0.08 | 0.00 | 82 | 1005.4 |
| 20260503045324 | 28 | 326 | 2.0 | 4.0 | 0.00 | 0.08 | 0.00 | 82 | 1005.4 |
| 20260503044836 | 28 | 326 | 1.0 | 3.0 | 0.00 | 0.08 | 0.00 | 82 | 1005.4 |
| 20260503044327 | 28 | 330 | 1.0 | 5.0 | 0.00 | 0.08 | 0.00 | 84 | 1005.3 |
| 20260503043838 | 28 | 330 | 1.0 | 5.0 | 0.00 | 0.08 | 0.00 | 84 | 1005.3 |
| 20260503043330 | 28 | 323 | 0.0 | 4.0 | 0.00 | 0.08 | 0.00 | 84 | 1005.3 |
| 20260503042826 | 27 | 322 | 1.0 | 4.0 | 0.00 | 0.12 | 0.00 | 84 | 1005.2 |
| 20260503042338 | 27 | 325 | 1.0 | 4.0 | 0.00 | 0.12 | 0.00 | 85 | 1005.4 |
| 20260503041828 | 27 | 325 | 2.0 | 4.0 | 0.00 | 0.12 | 0.00 | 84 | 1005.4 |
| 20260503041321 | 27 | 316 | 0.0 | 2.0 | 0.00 | 0.12 | 0.00 | 84 | 1005.4 |
| 20260503040835 | 27 | 316 | 0.0 | 3.0 | 0.00 | 0.12 | 0.00 | 84 | 1005.4 |
| 20260503040327 | 27 | 316 | 0.0 | 3.0 | 0.00 | 0.12 | 0.00 | 85 | 1005.4 |
| 20260503035836 | 27 | 316 | 0.0 | 4.0 | 0.00 | 0.12 | 0.00 | 85 | 1005.4 |
| 20260503035326 | 27 | 316 | 0.0 | 6.0 | 0.00 | 0.12 | 0.00 | 84 | 1005.4 |
| 20260503034821 | 27 | 339 | 0.0 | 6.0 | 0.00 | 0.12 | 0.00 | 84 | 1005.3 |
| 20260503034332 | 27 | 291 | 1.0 | 4.0 | 0.00 | 0.12 | 0.00 | 84 | 1005.4 |
| 20260503033837 | 27 | 301 | 2.0 | 4.0 | 0.00 | 0.12 | 0.00 | 83 | 1005.3 |
| 20260503033331 | 27 | 300 | 1.0 | 5.0 | 0.00 | 0.12 | 0.00 | 82 | 1005.2 |
| 20260503032823 | 27 | 297 | 2.0 | 4.0 | 0.00 | 0.16 | 0.00 | 82 | 1005.0 |
| 20260503032337 | 27 | 335 | 1.0 | 4.0 | 0.00 | 0.16 | 0.00 | 82 | 1005.0 |
| 20260503031829 | 27 | 336 | 2.0 | 7.0 | 0.00 | 0.16 | 0.00 | 82 | 1005.1 |
| 20260503031339 | 27 | 324 | 4.0 | 7.0 | 0.00 | 0.16 | 0.00 | 82 | 1005.1 |
| 20260503030835 | 27 | 351 | 3.0 | 10.0 | 0.00 | 0.16 | 0.00 | 82 | 1005.2 |
| 20260503030330 | 27 | 6 | 4.0 | 10.0 | 0.00 | 0.16 | 0.00 | 82 | 1005.2 |
| 20260503025837 | 27 | 39 | 0.0 | 6.0 | 0.00 | 0.16 | 0.00 | 83 | 1005.2 |
| 20260503025331 | 27 | 39 | 1.0 | 11.0 | 0.00 | 0.16 | 0.00 | 83 | 1005.2 |
| 20260503024822 | 27 | 349 | 6.0 | 11.0 | 0.00 | 0.16 | 0.00 | 84 | 1005.3 |
| 20260503024336 | 27 | 38 | 2.0 | 9.0 | 0.00 | 0.16 | 0.00 | 84 | 1005.4 |
| 20260503023827 | 27 | 355 | 2.0 | 6.0 | 0.00 | 0.16 | 0.00 | 84 | 1005.5 |
| 20260503023321 | 27 | 323 | 2.0 | 7.0 | 0.00 | 0.16 | 0.00 | 84 | 1005.4 |
| 20260503022837 | 27 | 328 | 4.0 | 10.0 | 0.00 | 0.16 | 0.00 | 83 | 1005.4 |
| 20260503022329 | 27 | 312 | 5.0 | 12.0 | 0.00 | 0.16 | 0.00 | 83 | 1005.4 |
| 20260503021821 | 28 | 305 | 6.0 | 12.0 | 0.00 | 0.16 | 0.00 | 82 | 1005.2 |
| 20260503021332 | 28 | 329 | 7.0 | 12.0 | 0.00 | 0.16 | 0.00 | 83 | 1005.2 |
| 20260503020831 | 28 | 323 | 7.0 | 12.0 | 0.00 | 0.16 | 0.00 | 84 | 1005.1 |
| 20260503020324 | 28 | 291 | 5.0 | 11.0 | 0.00 | 0.16 | 0.00 | 82 | 1005.1 |
| 20260503015836 | 28 | 320 | 5.0 | 11.0 | 0.00 | 0.16 | 0.00 | 81 | 1005.2 |
| 20260503015328 | 29 | 330 | 4.0 | 11.0 | 0.00 | 0.16 | 0.00 | 80 | 1005.2 |
| 20260503014832 | 29 | 332 | 7.0 | 10.0 | 0.00 | 0.16 | 0.00 | 79 | 1005.2 |
| 20260503014328 | 29 | 317 | 4.0 | 12.0 | 0.00 | 0.16 | 0.00 | 79 | 1005.1 |
| 20260503013839 | 29 | 255 | 5.0 | 12.0 | 0.00 | 0.16 | 0.00 | 79 | 1005.2 |
| 20260503013331 | 29 | 321 | 2.0 | 5.0 | 0.00 | 0.16 | 0.00 | 79 | 1005.2 |
| 20260503012822 | 29 | 348 | 2.0 | 5.0 | 0.00 | 0.16 | 0.00 | 78 | 1005.2 |
| 20260503012333 | 29 | 351 | 3.0 | 15.0 | 0.00 | 0.16 | 0.00 | 78 | 1005.2 |
| 20260503011827 | 28 | 81 | 7.0 | 10.0 | 0.00 | 0.16 | 0.00 | 78 | 1005.1 |
| 20260503011338 | 28 | 37 | 5.0 | 12.0 | 0.00 | 0.16 | 0.00 | 79 | 1005.1 |
| 20260503010851 | 28 | 20 | 3.0 | 9.0 | 0.00 | 0.16 | 0.00 | 79 | 1005.1 |
| 20260503010324 | 29 | 12 | 4.0 | 7.0 | 0.00 | 0.16 | 0.00 | 81 | 1005.3 |
| 20260503005837 | 29 | 42 | 0.0 | 9.0 | 0.00 | 0.16 | 0.00 | 82 | 1005.3 |
| 20260503005329 | 29 | 35 | 3.0 | 9.0 | 0.00 | 0.16 | 0.00 | 82 | 1005.4 |
| 20260503004822 | 29 | 4 | 1.0 | 10.0 | 0.00 | 0.16 | 0.00 | 83 | 1005.3 |
| 20260503004331 | 29 | 309 | 2.0 | 14.0 | 0.00 | 0.16 | 0.00 | 83 | 1005.2 |
| 20260503003824 | 29 | 332 | 4.0 | 15.0 | 0.00 | 0.16 | 0.00 | 84 | 1005.0 |
| 20260503003357 | 29 | 326 | 8.0 | 18.0 | 0.00 | 0.16 | 0.00 | 84 | 1005.0 |
| 20260503002828 | 29 | 337 | 9.0 | 18.0 | 0.00 | 0.16 | 0.00 | 85 | 1004.9 |
| 20260503002342 | 29 | 356 | 5.0 | 17.0 | 0.00 | 0.16 | 0.00 | 86 | 1004.9 |
| 20260503001833 | 29 | 291 | 8.0 | 15.0 | 0.00 | 0.16 | 0.00 | 87 | 1004.9 |
| 20260503001328 | 29 | 321 | 9.0 | 15.0 | 0.00 | 0.16 | 0.00 | 88 | 1004.9 |
| 20260503000820 | 29 | 334 | 6.0 | 15.0 | 0.00 | 0.16 | 0.00 | 88 | 1004.9 |
| 20260503000335 | 29 | 324 | 5.0 | 15.0 | 0.00 | 0.16 | 0.00 | 88 | 1004.9 |
| 20260502235825 | 29 | 337 | 4.0 | 11.0 | 0.00 | 0.16 | 0.00 | 89 | 1004.9 |
| 20260502235338 | 30 | 328 | 2.0 | 9.0 | 0.00 | 0.16 | 0.00 | 90 | 1004.8 |
| 20260502234851 | 30 | 350 | 4.0 | 9.0 | 0.00 | 0.16 | 0.00 | 90 | 1004.7 |
| 20260502234341 | 30 | 335 | 4.0 | 9.0 | 0.00 | 0.16 | 0.00 | 90 | 1004.7 |
| 20260502233834 | 30 | 353 | 4.0 | 9.0 | 0.00 | 0.16 | 0.00 | 90 | 1004.6 |
| 20260502233326 | 30 | 319 | 2.0 | 6.0 | 0.00 | 0.16 | 0.00 | 89 | 1004.6 |
| 20260502232819 | 30 | 355 | 2.0 | 5.0 | 0.00 | 0.16 | 0.00 | 88 | 1004.5 |
| 20260502232332 | 30 | 316 | 0.0 | 3.0 | 0.00 | 0.16 | 0.00 | 88 | 1004.5 |
| 20260502231825 | 30 | 316 | 1.0 | 5.0 | 0.00 | 0.16 | 0.00 | 88 | 1004.4 |
| 20260502231337 | 30 | 316 | 1.0 | 9.0 | 0.00 | 0.16 | 0.00 | 88 | 1004.4 |
| 20260502230827 | 30 | 319 | 3.0 | 9.0 | 0.00 | 0.16 | 0.00 | 88 | 1004.3 |
| 20260502230322 | 30 | 350 | 2.0 | 6.0 | 0.00 | 0.16 | 0.00 | 88 | 1004.3 |
| 20260502225832 | 30 | 335 | 2.0 | 7.0 | 0.00 | 0.16 | 0.00 | 88 | 1004.2 |
| 20260502225325 | 30 | 347 | 4.0 | 12.0 | 0.00 | 0.16 | 0.00 | 88 | 1004.2 |
| 20260502224839 | 30 | 339 | 4.0 | 12.0 | 0.00 | 0.16 | 0.00 | 89 | 1004.2 |
| 20260502224331 | 30 | 350 | 5.0 | 10.0 | 0.00 | 0.16 | 0.00 | 90 | 1004.2 |
| 20260502223823 | 30 | 45 | 3.0 | 9.0 | 0.00 | 0.16 | 0.00 | 90 | 1004.2 |
| 20260502223336 | 31 | 39 | 2.0 | 6.0 | 0.00 | 0.16 | 0.00 | 90 | 1004.2 |
| 20260502222828 | 31 | 21 | 2.0 | 9.0 | 0.00 | 0.16 | 0.03 | 90 | 1004.2 |
| 20260502222321 | 31 | 350 | 2.0 | 10.0 | 0.00 | 0.16 | 0.03 | 90 | 1004.2 |
| 20260502221833 | 31 | 12 | 2.0 | 10.0 | 0.00 | 0.16 | 0.03 | 90 | 1004.1 |
| 20260502221325 | 31 | 359 | 0.0 | 4.0 | 0.00 | 0.16 | 0.03 | 90 | 1004.1 |
| 20260502220838 | 31 | 359 | 0.0 | 4.0 | 0.00 | 0.16 | 0.03 | 90 | 1004.1 |
| 20260502220333 | 31 | 351 | 1.0 | 4.0 | 0.00 | 0.16 | 0.03 | 89 | 1004.1 |
| 20260502215824 | 31 | 350 | 2.0 | 6.0 | 0.00 | 0.16 | 0.03 | 89 | 1004.1 |
| 20260502215337 | 31 | 352 | 3.0 | 6.0 | 0.00 | 0.16 | 0.03 | 89 | 1004.1 |
| 20260502214828 | 31 | 333 | 2.0 | 7.0 | 0.00 | 0.16 | 0.03 | 89 | 1004.1 |
| 20260502214320 | 31 | 341 | 4.0 | 11.0 | 0.00 | 0.16 | 0.03 | 89 | 1004.1 |
| 20260502213852 | 31 | 324 | 6.0 | 11.0 | 0.00 | 0.16 | 0.03 | 89 | 1004.1 |
| 20260502213324 | 31 | 332 | 3.0 | 12.0 | 0.00 | 0.16 | 0.03 | 89 | 1004.0 |
| 20260502212836 | 31 | 330 | 6.0 | 12.0 | 0.00 | 0.16 | 0.03 | 89 | 1004.0 |
| 20260502212332 | 31 | 318 | 3.0 | 9.0 | 0.00 | 0.16 | 0.03 | 88 | 1004.0 |
| 20260502211843 | 31 | 322 | 2.0 | 5.0 | 0.00 | 0.16 | 0.03 | 88 | 1004.0 |
| 20260502211334 | 31 | 317 | 2.0 | 9.0 | 0.00 | 0.16 | 0.03 | 87 | 1004.1 |
| 20260502210821 | 30 | 12 | 2.0 | 9.0 | 0.00 | 0.16 | 0.03 | 87 | 1004.1 |
| 20260502210354 | 30 | 355 | 0.0 | 1.0 | 0.00 | 0.16 | 0.03 | 87 | 1004.2 |
| 20260502205824 | 30 | 355 | 0.0 | 3.0 | 0.00 | 0.16 | 0.03 | 87 | 1004.2 |
| 20260502205337 | 30 | 355 | 0.0 | 3.0 | 0.00 | 0.16 | 0.03 | 87 | 1004.2 |
| 20260502204829 | 30 | 353 | 0.0 | 2.0 | 0.00 | 0.16 | 0.03 | 86 | 1004.2 |
| 20260502204321 | 30 | 353 | 0.0 | 1.0 | 0.00 | 0.16 | 0.03 | 86 | 1004.2 |
| 20260502203833 | 30 | 353 | 0.0 | 3.0 | 0.00 | 0.16 | 0.03 | 86 | 1004.2 |
| 20260502203330 | 30 | 353 | 1.0 | 3.0 | 0.00 | 0.16 | 0.03 | 86 | 1004.1 |
| 20260502202822 | 30 | 333 | 0.0 | 4.0 | 0.00 | 0.16 | 0.03 | 86 | 1004.1 |
| 20260502202355 | 30 | 333 | 2.0 | 4.0 | 0.00 | 0.16 | 0.03 | 86 | 1004.2 |
| 20260502201826 | 30 | 320 | 2.0 | 7.0 | 0.00 | 0.16 | 0.03 | 86 | 1004.2 |
| 20260502201336 | 30 | 330 | 4.0 | 9.0 | 0.00 | 0.16 | 0.03 | 86 | 1004.3 |
| 20260502200829 | 30 | 343 | 2.0 | 8.0 | 0.00 | 0.16 | 0.03 | 86 | 1004.3 |
| 20260502200324 | 31 | 326 | 3.0 | 7.0 | 0.00 | 0.16 | 0.03 | 87 | 1004.3 |
| 20260502195834 | 31 | 332 | 4.0 | 7.0 | 0.00 | 0.16 | 0.03 | 88 | 1004.2 |
| 20260502195330 | 31 | 270 | 3.0 | 9.0 | 0.00 | 0.16 | 0.03 | 88 | 1004.2 |
| 20260502194823 | 31 | 330 | 3.0 | 9.0 | 0.00 | 0.16 | 0.03 | 88 | 1004.2 |
| 20260502194333 | 31 | 314 | 4.0 | 6.0 | 0.00 | 0.16 | 0.03 | 88 | 1004.3 |
| 20260502193847 | 31 | 318 | 1.0 | 9.0 | 0.00 | 0.16 | 0.03 | 88 | 1004.4 |
| 20260502193337 | 31 | 320 | 4.0 | 12.0 | 0.00 | 0.16 | 0.03 | 88 | 1004.4 |
| 20260502192829 | 31 | 340 | 6.0 | 12.0 | 0.00 | 0.16 | 0.03 | 89 | 1004.4 |
| 20260502192321 | 32 | 322 | 3.0 | 12.0 | 0.00 | 0.16 | 0.03 | 89 | 1004.4 |
| 20260502191833 | 32 | 323 | 3.0 | 12.0 | 0.00 | 0.16 | 0.03 | 89 | 1004.5 |
| 20260502191326 | 32 | 332 | 6.0 | 12.0 | 0.00 | 0.16 | 0.03 | 89 | 1004.6 |
| 20260502190843 | 32 | 324 | 5.0 | 10.0 | 0.00 | 0.16 | 0.03 | 88 | 1004.7 |
| 20260502190337 | 32 | 329 | 5.0 | 12.0 | 0.00 | 0.16 | 0.03 | 87 | 1004.6 |
| 20260502185827 | 32 | 335 | 3.0 | 7.0 | 0.00 | 0.16 | 0.03 | 86 | 1004.7 |
| 20260502185337 | 33 | 327 | 4.0 | 9.0 | 0.00 | 0.16 | 0.03 | 85 | 1004.6 |
| 20260502184830 | 33 | 308 | 4.0 | 11.0 | 0.00 | 0.16 | 0.03 | 84 | 1004.6 |
| 20260502184320 | 33 | 328 | 7.0 | 11.0 | 0.00 | 0.16 | 0.03 | 84 | 1004.6 |
| 20260502183833 | 33 | 319 | 3.0 | 6.0 | 0.00 | 0.16 | 0.03 | 83 | 1004.5 |
| 20260502183345 | 33 | 324 | 1.0 | 5.0 | 0.00 | 0.16 | 0.03 | 83 | 1004.5 |
| 20260502182834 | 33 | 353 | 3.0 | 6.0 | 0.00 | 0.16 | 0.03 | 83 | 1004.5 |
| 20260502182331 | 33 | 340 | 3.0 | 5.0 | 0.00 | 0.16 | 0.03 | 82 | 1004.5 |
| 20260502181823 | 33 | 319 | 2.0 | 6.0 | 0.00 | 0.16 | 0.03 | 83 | 1004.5 |
| 20260502181333 | 33 | 315 | 3.0 | 8.0 | 0.00 | 0.16 | 0.03 | 83 | 1004.4 |
| 20260502180827 | 33 | 31 | 1.0 | 8.0 | 0.00 | 0.16 | 0.03 | 84 | 1004.4 |
| 20260502180319 | 33 | 341 | 3.0 | 8.0 | 0.00 | 0.16 | 0.03 | 84 | 1004.4 |
| 20260502170324 | 34 | 303 | 1.0 | 5.0 | 0.00 | 0.16 | 0.03 | 80 | 1004.6 |
| 20260502164332 | 35 | 326 | 4.0 | 9.0 | 0.00 | 0.16 | 0.03 | 81 | 1004.6 |
| 20260502163841 | 34 | 316 | 5.0 | 12.0 | 0.00 | 0.16 | 0.03 | 82 | 1004.6 |
| 20260502163333 | 34 | 334 | 7.0 | 13.0 | 0.00 | 0.16 | 0.03 | 82 | 1004.7 |
| 20260502162824 | 35 | 326 | 6.0 | 17.0 | 0.00 | 0.16 | 0.03 | 81 | 1004.8 |
| 20260502162334 | 35 | 326 | 8.0 | 20.0 | 0.00 | 0.16 | 0.03 | 80 | 1004.8 |
| 20260502161828 | 36 | 322 | 10.0 | 20.0 | 0.00 | 0.16 | 0.03 | 77 | 1004.8 |
| 20260502161340 | 36 | 324 | 8.0 | 14.0 | 0.00 | 0.16 | 0.03 | 75 | 1004.7 |
| 20260502160851 | 36 | 316 | 2.0 | 10.0 | 0.00 | 0.16 | 0.03 | 75 | 1004.6 |
| 20260502160327 | 36 | 343 | 3.0 | 10.0 | 0.00 | 0.16 | 0.03 | 76 | 1004.5 |
| 20260502151830 | 37 | 301 | 6.0 | 14.0 | 0.00 | 0.16 | 0.03 | 73 | 1004.7 |
| 20260502151328 | 37 | 295 | 4.0 | 13.0 | 0.00 | 0.16 | 0.03 | 74 | 1004.7 |
| 20260502150819 | 37 | 297 | 8.0 | 13.0 | 0.00 | 0.16 | 0.03 | 71 | 1004.7 |
| 20260502150332 | 37 | 303 | 7.0 | 16.0 | 0.00 | 0.16 | 0.03 | 71 | 1004.7 |
| 20260502130338 | 43 | 325 | 7.0 | 16.0 | 0.00 | 0.16 | 0.03 | 63 | 1004.7 |
| 20260502123332 | 44 | 320 | 6.0 | 16.0 | 0.00 | 0.16 | 0.03 | 65 | 1004.7 |
| 20260502122825 | 44 | 325 | 5.0 | 16.0 | 0.00 | 0.16 | 0.03 | 67 | 1004.6 |
| 20260502122336 | 43 | 297 | 6.0 | 13.0 | 0.00 | 0.16 | 0.03 | 69 | 1004.7 |
| 20260502121828 | 42 | 305 | 6.0 | 15.0 | 0.00 | 0.16 | 0.03 | 73 | 1004.8 |
| 20260502121359 | 40 | 311 | 7.0 | 15.0 | 0.00 | 0.16 | 0.03 | 73 | 1004.7 |
| 20260502120823 | 39 | 286 | 5.0 | 14.0 | 0.00 | 0.16 | 0.03 | 71 | 1004.7 |
| 20260502120320 | 39 | 193 | 6.0 | 14.0 | 0.00 | 0.16 | 0.03 | 71 | 1004.7 |
| 20260502115853 | 40 | 297 | 5.0 | 15.0 | 0.00 | 0.16 | 0.03 | 69 | 1004.6 |
| 20260502115324 | 40 | 308 | 7.0 | 15.0 | 0.00 | 0.16 | 0.03 | 70 | 1004.7 |
| 20260502114837 | 41 | 271 | 7.0 | 15.0 | 0.00 | 0.16 | 0.03 | 71 | 1004.6 |
| 20260502114328 | 40 | 339 | 4.0 | 20.0 | 0.00 | 0.16 | 0.03 | 78 | 1004.6 |
| 20260502113819 | 39 | 286 | 7.0 | 20.0 | 0.00 | 0.16 | 0.03 | 82 | 1004.6 |
| 20260502113333 | 37 | 320 | 7.0 | 16.0 | 0.00 | 0.16 | 0.03 | 80 | 1004.6 |
| 20260502112823 | 37 | 320 | 8.0 | 16.0 | 0.00 | 0.16 | 0.03 | 80 | 1004.6 |
| 20260502112357 | 37 | 328 | 4.0 | 13.0 | 0.00 | 0.16 | 0.03 | 81 | 1004.7 |
| 20260502111848 | 36 | 286 | 7.0 | 16.0 | 0.00 | 0.16 | 0.03 | 81 | 1004.7 |
| 20260502111324 | 36 | 291 | 6.0 | 16.0 | 0.00 | 0.16 | 0.03 | 79 | 1004.6 |
| 20260502110836 | 36 | 271 | 8.0 | 16.0 | 0.00 | 0.16 | 0.03 | 78 | 1004.6 |
| 20260502110351 | 36 | 291 | 7.0 | 17.0 | 0.00 | 0.16 | 0.03 | 79 | 1004.6 |
| 20260502105836 | 37 | 318 | 9.0 | 19.0 | 0.00 | 0.16 | 0.03 | 79 | 1004.6 |
| 20260502105329 | 37 | 310 | 7.0 | 19.0 | 0.00 | 0.16 | 0.03 | 77 | 1004.5 |
| 20260502104820 | 37 | 308 | 7.0 | 14.0 | 0.00 | 0.16 | 0.03 | 76 | 1004.4 |
| 20260502104331 | 37 | 358 | 7.0 | 13.0 | 0.00 | 0.16 | 0.03 | 75 | 1004.4 |
| 20260502103821 | 37 | 341 | 5.0 | 18.0 | 0.00 | 0.16 | 0.03 | 75 | 1004.4 |
| 20260502103334 | 37 | 335 | 9.0 | 19.0 | 0.00 | 0.16 | 0.03 | 73 | 1004.3 |
| 20260502102830 | 38 | 343 | 11.0 | 19.0 | 0.00 | 0.16 | 0.03 | 71 | 1004.3 |
| 20260502102323 | 39 | 326 | 7.0 | 17.0 | 0.00 | 0.16 | 0.03 | 69 | 1004.2 |
| 20260502101834 | 39 | 301 | 10.0 | 17.0 | 0.00 | 0.16 | 0.03 | 71 | 1004.1 |
| 20260502101347 | 39 | 318 | 3.0 | 13.0 | 0.00 | 0.16 | 0.03 | 76 | 1004.1 |
| 20260502100837 | 39 | 337 | 6.0 | 15.0 | 0.00 | 0.16 | 0.03 | 73 | 1004.0 |
| 20260502100351 | 39 | 300 | 5.0 | 18.0 | 0.00 | 0.16 | 0.03 | 72 | 1004.1 |
| 20260502091336 | 39 | 310 | 12.0 | 22.0 | 0.00 | 0.16 | 0.03 | 87 | 1003.5 |
| 20260502090827 | 38 | 318 | 7.0 | 20.0 | 0.00 | 0.16 | 0.03 | 89 | 1003.2 |
| 20260502090319 | 37 | 321 | 6.0 | 16.0 | 0.00 | 0.16 | 0.03 | 91 | 1003.4 |
| 20260502071326 | 36 | 321 | 4.0 | 7.0 | 0.04 | 0.16 | 0.03 | 94 | 1002.5 |
| 20260502070858 | 35 | 339 | 2.0 | 9.0 | 0.04 | 0.16 | 0.03 | 94 | 1002.5 |
| 20260502070328 | 35 | 323 | 3.0 | 11.0 | 0.04 | 0.16 | 0.03 | 93 | 1002.5 |
| 20260502065836 | 35 | 324 | 6.0 | 13.0 | 0.04 | 0.16 | 0.03 | 93 | 1002.4 |
| 20260502065329 | 36 | 308 | 7.0 | 13.0 | 0.08 | 0.16 | 0.03 | 93 | 1002.3 |
| 20260502064820 | 36 | 266 | 5.0 | 17.0 | 0.08 | 0.16 | 0.03 | 93 | 1002.3 |
| 20260502064351 | 36 | 297 | 9.0 | 17.0 | 0.08 | 0.16 | 0.03 | 93 | 1002.1 |
| 20260502063820 | 36 | 306 | 6.0 | 16.0 | 0.04 | 0.12 | 0.02 | 93 | 1002.2 |
| 20260502063333 | 36 | 314 | 5.0 | 16.0 | 0.04 | 0.12 | 0.02 | 93 | 1002.0 |
| 20260502062825 | 36 | 318 | 9.0 | 16.0 | 0.04 | 0.12 | 0.02 | 93 | 1001.9 |
| 20260502062320 | 36 | 273 | 7.0 | 12.0 | 0.04 | 0.12 | 0.02 | 93 | 1001.9 |
| 20260502061833 | 37 | 326 | 5.0 | 11.0 | 0.04 | 0.12 | 0.02 | 94 | 1001.9 |
| 20260502061324 | 37 | 295 | 5.0 | 11.0 | 0.04 | 0.12 | 0.02 | 93 | 1001.7 |
| 20260502060836 | 37 | 331 | 4.0 | 11.0 | 0.04 | 0.12 | 0.02 | 93 | 1001.6 |
| 20260502060327 | 37 | 343 | 4.0 | 11.0 | 0.04 | 0.12 | 0.02 | 93 | 1001.5 |
| 20260502055837 | 37 | 360 | 5.0 | 11.0 | 0.04 | 0.12 | 0.02 | 93 | 1001.6 |
| 20260502055328 | 37 | 300 | 1.0 | 8.0 | 0.00 | 0.08 | 0.02 | 92 | 1001.5 |
| 20260502054822 | 37 | 264 | 3.0 | 8.0 | 0.00 | 0.08 | 0.02 | 92 | 1001.4 |
| 20260502054337 | 38 | 274 | 1.0 | 9.0 | 0.00 | 0.08 | 0.02 | 92 | 1001.4 |
| 20260502053827 | 38 | 281 | 4.0 | 9.0 | 0.00 | 0.08 | 0.02 | 92 | 1001.3 |